QPF
0.00 0.00 0.00 0.00 0.00 0.00 0.00 0.00 0.00 0.00 0.00 0.00 0.00 0.00 0.00 0.00 0.00 0.00 0.00 0.00 0.00 0.00 0.00 0.00 0.00 0.00 0.00 0.00 0.00 0.00 0.00 0.00 0.00 0.00 0.00 0.00 0.00 0.00 0.00 0.00 0.00 0.00
0.00 0.00 0.00 0.00 0.00 0.00 0.00 0.00 0.00 0.00 0.00 0.00 0.00 0.00 0.00 0.00 0.00 0.00 0.00 0.00 0.00 0.00 0.00 0.00 0.00 0.00 0.00 0.00 0.00 0.00 0.00 0.00 0.00 0.00 0.00 0.00 0.00 0.00 0.00 0.00 0.00 0.00
0.00 0.00 0.00 0.00 0.00 0.00 0.00 0.00 0.00 0.00 0.00 0.00 0.00 0.00 0.00 0.00 0.00 0.00 0.00 0.00 0.00 0.00 0.00 0.00 0.00 0.00 0.00 0.00 0.00 0.00 0.00 0.00 0.00 0.00 0.00 0.00 0.00 0.00 0.00 0.00 0.00 0.00
0.00 0.00 0.00 0.00 0.00 0.00 0.00 0.00 0.00 0.00 0.00 0.00 0.00 0.00 0.00 0.00 0.00 0.00 0.00 0.00 0.00 0.00 0.00 0.00 0.00 0.00 0.00 0.00 0.00 0.00 0.00 0.00 0.00 0.00 0.00 0.00 0.00 0.00 0.00 0.00 0.00 0.00
0.00 0.00 0.00 0.00 0.00 0.00 0.00 0.00 0.00 0.00 0.00 0.00 0.00 0.00 0.00 0.00 0.00 0.00 0.00 0.00 0.00 0.00 0.00 0.00 0.00 0.00 0.00 0.00 0.00 0.00 0.00 0.00 0.00 0.00 0.00 0.00 0.00 0.00 0.00 0.00 0.00 0.00
0.00 0.00 0.00 0.00 0.00 0.00 0.00 0.00 0.00 0.00 0.00 0.00 0.00 0.00 0.00 0.00 0.00 0.00 0.00 0.00 0.00 0.00 0.00 0.00 0.00 0.00 0.00 0.00 0.00 0.00 0.00 0.00 0.00 0.00 0.00 0.00 0.00 0.00 0.00 0.00 0.00 0.00
0.00 0.00 0.00 0.00 0.00 0.00 0.00 0.00 0.00 0.00 0.00 0.00 0.00 0.00 0.00 0.00 0.00 0.00 0.00 0.00 0.00 0.00 0.00 0.00 0.00 0.00 0.00 0.00 0.00 0.00 0.00 0.00 0.00 0.00 0.00 0.00 0.00 0.00 0.00 0.00 0.00 0.00
0.00 0.00 0.00 0.00 0.00 0.00 0.00 0.00 0.00 0.00 0.00 0.00 0.00 0.00 0.00 0.00 0.00 0.00 0.00 0.00 0.00 0.00 0.00 0.00 0.00 0.00 0.00 0.00 0.00 0.00 0.00 0.00 0.00 0.00 0.00 0.00 0.00 0.00 0.00 0.00 0.00 0.00
0.00 0.00 0.00 0.00 0.00 0.00 0.00 0.00 0.00 0.00 0.00 0.00 0.00 0.00 0.00 0.00 0.00 0.00 0.00 0.00 0.00 0.00 0.00 0.00 0.00 0.00 0.00 0.00 0.00 0.00 0.00 0.00 0.00 0.00 0.00 0.00 0.00 0.00 0.00 0.00 0.00 0.00
0.00 0.00 0.00 0.00 0.00 0.00 0.00 0.00 0.00 0.00 0.00 0.00 0.00 0.00 0.00 0.00 0.00 0.00 0.00 0.00 0.00 0.00 0.00 0.00 0.00 0.00 0.00 0.00 0.00 0.00 0.00 0.00 0.00 0.00 0.00 0.00 0.00 0.00 0.00 0.00 0.00 0.00
0.00 0.00 0.00 0.00 0.00 0.00 0.00 0.00 0.00 0.00 0.00 0.00 0.00 0.00 0.00 0.00 0.00 0.00 0.00 0.00 0.00 0.00 0.00 0.00 0.00 0.00 0.00 0.00 0.00 0.00 0.00 0.00 0.00 0.00 0.00 0.00 0.00 0.00 0.00 0.00 0.00 0.00
0.00 0.00 0.00 0.00 0.00 0.00 0.00 0.00 0.01 0.00 0.00 0.00 0.00 0.00 0.00 0.00 0.00 0.00 0.00 0.00 0.00 0.00 0.00 0.00 0.00 0.00 0.00 0.00 0.00 0.00 0.00 0.00 0.00 0.00 0.00 0.00 0.00 0.00 0.00 0.00 0.00 0.00
0.00 0.00 0.00 0.00 0.00 0.00 0.00 0.00 0.00 0.01 0.01 0.00 0.00 0.00 0.00 0.00 0.00 0.00 0.00 0.00 0.00 0.00 0.00 0.00 0.00 0.00 0.00 0.00 0.00 0.00 0.00 0.00 0.00 0.00 0.00 0.00 0.00 0.00 0.00 0.00 0.00 0.00
0.00 0.00 0.00 0.00 0.00 0.00 0.00 0.00 0.00 0.00 0.00 0.00 0.00 0.03 0.01 0.01 0.00 0.00 0.00 0.00 0.00 0.00 0.00 0.00 0.00 0.00 0.00 0.00 0.00 0.00 0.00 0.00 0.00 0.00 0.00 0.00 0.00 0.00 0.00 0.00 0.00 0.00
0.00 0.00 0.00 0.00 0.00 0.00 0.00 0.00 0.00 0.00 0.00 0.01 0.01 0.01 0.01 0.01 0.00 0.00 0.00 0.00 0.00 0.00 0.00 0.00 0.00 0.00 0.00 0.00 0.00 0.00 0.00 0.00 0.00 0.00 0.00 0.00 0.00 0.00 0.00 0.00 0.00 0.00
0.00 0.00 0.00 0.00 0.00 0.00 0.00 0.00 0.00 0.00 0.00 0.00 0.00 0.00 0.00 0.00 0.00 0.00 0.00 0.00 0.00 0.00 0.00 0.00 0.00 0.00 0.00 0.00 0.00 0.00 0.00 0.00 0.00 0.00 0.00 0.00 0.00 0.00 0.00 0.00 0.00 0.00
0.00 0.00 0.00 0.00 0.00 0.00 0.00 0.00 0.00 0.00 0.00 0.00 0.00 0.00 0.00 0.00 0.00 0.00 0.00 0.00 0.00 0.01 0.00 0.00 0.00 0.00 0.00 0.00 0.00 0.00 0.00 0.00 0.00 0.00 0.00 0.00 0.00 0.00 0.00 0.00 0.00 0.00
0.00 0.00 0.00 0.00 0.00 0.00 0.00 0.00 0.00 0.00 0.00 0.00 0.00 0.00 0.00 0.00 0.00 0.00 0.00 0.00 0.00 0.00 0.00 0.00 0.00 0.00 0.00 0.00 0.00 0.00 0.00 0.00 0.00 0.00 0.00 0.00 0.00 0.00 0.00 0.00 0.00 0.00
0.00 0.00 0.00 0.00 0.00 0.00 0.00 0.00 0.00 0.00 0.00 0.00 0.00 0.00 0.00 0.00 0.00 0.00 0.00 0.00 0.00 0.00 0.00 0.00 0.00 0.00 0.00 0.00 0.00 0.00 0.00 0.00 0.00 0.00 0.00 0.00 0.00 0.00 0.00 0.00 0.00 0.00
0.00 0.00 0.00 0.00 0.00 0.00 0.00 0.00 0.00 0.00 0.00 0.00 0.00 0.00 0.00 0.00 0.00 0.00 0.00 0.00 0.00 0.00 0.00 0.00 0.00 0.00 0.00 0.00 0.00 0.00 0.00 0.00 0.00 0.00 0.00 0.00 0.00 0.00 0.00 0.00 0.00 0.00
0.00 0.00 0.00 0.00 0.00 0.00 0.00 0.00 0.00 0.00 0.00 0.00 0.00 0.00 0.00 0.00 0.00 0.00 0.00 0.00 0.00 0.00 0.00 0.00 0.00 0.00 0.00 0.00 0.00 0.00 0.00 0.00 0.00 0.00 0.00 0.00 0.00 0.00 0.00 0.00 0.00 0.00
0.00 0.00 0.00 0.00 0.00 0.00 0.00 0.00 0.00 0.00 0.00 0.00 0.00 0.00 0.00 0.00 0.00 0.00 0.00 0.00 0.00 0.00 0.00 0.00 0.00 0.00 0.00 0.00 0.00 0.00 0.00 0.00 0.00 0.00 0.00 0.00 0.00 0.00 0.00 0.00 0.00 0.00
0.00 0.00 0.00 0.00 0.00 0.00 0.00 0.00 0.00 0.00 0.00 0.00 0.00 0.00 0.00 0.00 0.00 0.00 0.00 0.00 0.00 0.00 0.00 0.00 0.00 0.00 0.00 0.00 0.00 0.00 0.00 0.00 0.00 0.00 0.00 0.00 0.00 0.00 0.00 0.00 0.00 0.00
0.00 0.00 0.00 0.00 0.00 0.00 0.00 0.00 0.00 0.00 0.00 0.00 0.00 0.00 0.00 0.00 0.00 0.00 0.00 0.00 0.00 0.00 0.00 0.00 0.00 0.00 0.00 0.00 0.00 0.00 0.00 0.00 0.00 0.00 0.00 0.00 0.00 0.00 0.00 0.00 0.00 0.00
0.00 0.00 0.00 0.00 0.00 0.00 0.00 0.00 0.00 0.00 0.00 0.00 0.00 0.00 0.00 0.00 0.00 0.00 0.00 0.00 0.00 0.00 0.00 0.00 0.00 0.00 0.00 0.00 0.00 0.00 0.00 0.00 0.00 0.00 0.00 0.00 0.00 0.00 0.00 0.00 0.00 0.00
0.00 0.00 0.00 0.00 0.00 0.00 0.00 0.00 0.00 0.00 0.00 0.00 0.00 0.00 0.00 0.00 0.00 0.00 0.00 0.00 0.00 0.00 0.00 0.00 0.00 0.00 0.00 0.00 0.00 0.00 0.01 0.00 0.00 0.00 0.00 0.00 0.00 0.00 0.01 0.00 0.00 0.00
MSLP
1012.97 1012.81 1012.53 1012.21 1011.97 1011.85 1011.85 1011.93 1011.93 1011.97 1011.93 1011.89 1011.85 1011.85 1012.01 1012.17 1012.45 1012.65 1012.77 1012.89 1013.01 1013.13 1013.33 1013.61 1013.89 1014.13 1014.29 1014.41 1014.57 1014.69 1014.73 1014.85 1015.05 1015.25 1015.49 1015.73 1015.81 1015.93 1016.05 1016.21 1016.33 1016.17
1013.49 1013.25 1012.81 1012.49 1012.25 1012.13 1012.05 1012.01 1011.97 1011.93 1011.85 1011.77 1011.69 1011.69 1011.77 1011.97 1012.17 1012.45 1012.65 1012.77 1012.81 1012.85 1012.97 1013.17 1013.45 1013.77 1014.09 1014.33 1014.53 1014.61 1014.61 1014.73 1014.85 1015.01 1015.17 1015.37 1015.41 1015.61 1015.61 1015.73 1015.93 1016.05
1013.69 1013.25 1012.81 1012.61 1012.45 1012.33 1012.25 1012.21 1012.17 1012.01 1011.85 1011.69 1011.69 1011.69 1011.65 1011.81 1012.01 1012.21 1012.41 1012.57 1012.69 1012.73 1012.85 1012.89 1013.01 1013.21 1013.57 1013.97 1014.29 1014.53 1014.49 1014.49 1014.61 1014.69 1015.01 1015.05 1015.21 1015.25 1015.17 1015.49 1015.65 1015.81
1013.61 1013.21 1012.85 1012.69 1012.61 1012.53 1012.37 1012.25 1012.09 1012.01 1011.93 1011.85 1011.73 1011.69 1011.77 1011.81 1011.93 1012.09 1012.17 1012.37 1012.49 1012.53 1012.57 1012.73 1012.81 1012.93 1013.13 1013.45 1013.85 1014.09 1014.13 1014.21 1014.17 1014.41 1014.57 1014.69 1014.77 1014.81 1014.89 1015.05 1015.29 1015.53
1013.41 1013.09 1012.93 1012.85 1012.73 1012.57 1012.45 1012.33 1012.13 1011.97 1011.81 1011.65 1011.61 1011.61 1011.65 1011.73 1011.81 1011.85 1011.93 1012.05 1012.17 1012.29 1012.41 1012.49 1012.61 1012.73 1012.93 1013.13 1013.29 1013.45 1013.61 1013.73 1013.85 1014.05 1014.17 1014.25 1014.29 1014.57 1014.57 1014.81 1014.93 1015.13
1013.45 1013.33 1013.17 1013.05 1012.89 1012.69 1012.53 1012.33 1012.09 1011.93 1011.81 1011.65 1011.53 1011.45 1011.45 1011.49 1011.53 1011.57 1011.61 1011.69 1011.77 1011.89 1011.97 1012.13 1012.33 1012.49 1012.69 1012.81 1012.97 1012.93 1012.89 1013.01 1013.05 1013.41 1013.61 1013.69 1013.85 1014.01 1014.25 1014.37 1014.53 1014.73
1013.77 1013.61 1013.45 1013.25 1013.09 1012.85 1012.65 1012.41 1012.21 1012.05 1011.89 1011.65 1011.49 1011.41 1011.29 1011.33 1011.33 1011.29 1011.25 1011.29 1011.37 1011.49 1011.61 1011.69 1011.81 1012.05 1012.25 1012.49 1012.57 1012.57 1012.61 1012.53 1012.57 1012.69 1012.85 1013.01 1013.25 1013.41 1013.65 1013.89 1013.97 1014.09
1014.09 1013.89 1013.73 1013.45 1013.29 1013.01 1012.77 1012.61 1012.37 1012.17 1011.93 1011.77 1011.65 1011.37 1011.29 1011.21 1011.13 1011.05 1011.01 1011.01 1011.05 1011.09 1011.21 1011.33 1011.41 1011.61 1011.81 1012.01 1012.09 1012.17 1012.25 1012.29 1012.37 1012.37 1012.45 1012.49 1012.65 1012.73 1012.89 1013.29 1013.49 1013.65
1014.45 1014.25 1013.97 1013.65 1013.45 1013.21 1013.01 1012.73 1012.49 1012.25 1012.05 1011.89 1011.65 1011.41 1011.25 1011.13 1011.05 1010.93 1010.81 1010.73 1010.73 1010.77 1010.89 1010.97 1011.05 1011.17 1011.29 1011.45 1011.53 1011.61 1011.65 1011.73 1011.77 1011.89 1011.97 1012.09 1012.09 1011.89 1012.09 1012.57 1013.13 1013.17
1014.61 1014.41 1014.13 1013.89 1013.65 1013.41 1013.25 1012.97 1012.69 1012.37 1012.17 1011.97 1011.73 1011.49 1011.33 1011.09 1010.97 1010.81 1010.65 1010.53 1010.45 1010.53 1010.61 1010.65 1010.73 1010.77 1010.85 1010.89 1010.97 1011.09 1011.13 1011.17 1011.25 1011.41 1011.45 1011.53 1011.57 1011.61 1011.69 1011.89 1012.13 1012.49
1014.73 1014.45 1014.29 1014.05 1013.85 1013.53 1013.33 1013.05 1012.81 1012.53 1012.29 1012.09 1011.81 1011.57 1011.33 1011.13 1010.93 1010.73 1010.53 1010.37 1010.25 1010.21 1010.25 1010.25 1010.29 1010.33 1010.37 1010.41 1010.49 1010.61 1010.69 1010.69 1010.73 1010.77 1010.89 1010.97 1011.09 1011.13 1011.25 1011.57 1011.77 1011.73
1014.89 1014.69 1014.49 1014.29 1014.05 1013.73 1013.41 1013.09 1012.81 1012.61 1012.41 1012.17 1012.05 1011.81 1011.53 1011.25 1010.93 1010.61 1010.41 1010.21 1010.09 1010.05 1010.01 1009.89 1009.89 1009.93 1009.93 1009.93 1010.05 1010.21 1010.33 1010.37 1010.37 1010.37 1010.37 1010.53 1010.65 1010.69 1010.69 1010.89 1011.13 1011.29
1015.13 1014.89 1014.65 1014.41 1014.17 1013.93 1013.61 1013.25 1012.93 1012.69 1012.45 1012.25 1011.97 1011.77 1011.53 1011.25 1011.01 1010.77 1010.45 1010.21 1009.97 1009.85 1009.73 1009.69 1009.65 1009.61 1009.57 1009.61 1009.77 1009.93 1010.05 1010.13 1010.13 1010.05 1010.05 1010.09 1010.13 1010.17 1010.25 1010.49 1010.73 1010.81
1014.97 1014.77 1014.57 1014.37 1014.13 1013.89 1013.69 1013.45 1013.21 1012.89 1012.57 1012.25 1011.93 1011.57 1011.25 1010.97 1010.77 1010.53 1010.25 1010.13 1009.89 1009.69 1009.49 1009.45 1009.41 1009.33 1009.29 1009.29 1009.41 1009.53 1009.73 1009.81 1009.89 1009.85 1009.81 1009.69 1009.65 1009.77 1009.85 1009.97 1010.09 1010.29
1014.85 1014.61 1014.45 1014.21 1014.01 1013.77 1013.49 1013.17 1012.93 1012.73 1012.49 1012.25 1011.97 1011.69 1011.33 1011.01 1010.65 1010.37 1010.09 1009.85 1009.69 1009.57 1009.41 1009.21 1009.05 1008.89 1008.89 1008.97 1009.09 1009.13 1009.17 1009.33 1009.57 1009.65 1009.53 1009.29 1009.13 1009.17 1009.25 1009.29 1009.41 1009.53
1014.89 1014.69 1014.45 1014.25 1014.01 1013.77 1013.53 1013.33 1013.01 1012.65 1012.29 1011.93 1011.65 1011.41 1011.21 1010.97 1010.69 1010.37 1010.09 1009.77 1009.49 1009.29 1009.13 1009.05 1008.85 1008.65 1008.61 1008.73 1008.73 1008.77 1008.81 1008.89 1009.09 1009.17 1009.13 1008.97 1008.81 1008.69 1008.69 1008.61 1008.57 1008.73
1014.81 1014.61 1014.45 1014.29 1013.93 1013.73 1013.57 1013.37 1013.09 1012.77 1012.41 1012.01 1011.61 1011.33 1011.05 1010.69 1010.45 1010.21 1009.97 1009.69 1009.37 1009.05 1008.77 1008.49 1008.33 1008.25 1008.25 1008.25 1008.21 1008.29 1008.41 1008.45 1008.61 1008.69 1008.73 1008.61 1008.37 1008.21 1008.09 1008.05 1008.05 1008.13
1014.69 1014.49 1014.33 1014.05 1013.73 1013.53 1013.33 1013.21 1013.01 1012.77 1012.41 1011.97 1011.65 1011.29 1010.89 1010.61 1010.33 1009.93 1009.57 1009.37 1009.17 1008.93 1008.65 1008.25 1007.81 1007.61 1007.77 1007.77 1007.73 1007.77 1007.89 1007.97 1008.05 1008.13 1008.17 1008.05 1007.81 1007.73 1007.69 1007.73 1007.69 1007.69
1014.85 1014.65 1014.37 1014.05 1013.69 1013.33 1013.09 1012.85 1012.61 1012.37 1012.09 1011.81 1011.53 1011.17 1010.85 1010.57 1010.17 1009.77 1009.37 1009.05 1008.85 1008.61 1008.33 1007.97 1007.61 1007.37 1007.37 1007.29 1007.25 1007.29 1007.33 1007.53 1007.53 1007.49 1007.49 1007.37 1007.21 1007.13 1007.09 1007.17 1007.25 1007.37
1014.97 1014.81 1014.57 1014.25 1013.77 1013.37 1013.01 1012.73 1012.41 1012.13 1011.85 1011.65 1011.33 1010.93 1010.69 1010.37 1010.01 1009.73 1009.29 1008.93 1008.65 1008.37 1008.01 1007.69 1007.41 1007.13 1007.05 1006.89 1006.81 1006.89 1006.89 1007.01 1007.01 1006.97 1006.85 1006.69 1006.53 1006.45 1006.45 1006.49 1006.49 1006.73
1015.01 1014.85 1014.69 1014.25 1013.81 1013.37 1013.09 1012.81 1012.49 1012.09 1011.89 1011.65 1011.29 1010.89 1010.45 1010.09 1009.73 1009.45 1009.17 1008.89 1008.57 1008.21 1007.81 1007.37 1007.01 1006.85 1006.81 1006.61 1006.45 1006.45 1006.41 1006.53 1006.49 1006.41 1006.29 1006.05 1005.93 1005.93 1005.93 1005.85 1005.85 1006.05
1015.01 1014.89 1014.69 1014.37 1013.93 1013.41 1013.13 1012.89 1012.53 1012.29 1012.05 1011.65 1011.33 1010.77 1010.21 1009.85 1009.53 1009.33 1008.97 1008.57 1008.25 1007.97 1007.61 1007.05 1006.49 1006.41 1006.41 1006.33 1006.25 1006.13 1006.13 1006.09 1005.97 1005.85 1005.69 1005.49 1005.29 1005.25 1005.29 1005.41 1005.45 1005.57
1014.81 1014.81 1014.65 1014.33 1013.89 1013.45 1013.17 1012.97 1012.73 1012.37 1012.05 1011.81 1011.41 1010.77 1010.09 1009.57 1009.21 1009.01 1008.69 1008.29 1007.93 1007.65 1007.37 1006.77 1006.17 1005.89 1005.97 1005.97 1005.93 1005.93 1005.89 1005.73 1005.49 1005.33 1005.09 1004.85 1004.61 1004.53 1004.65 1004.81 1004.85 1005.05
1014.61 1014.65 1014.49 1014.17 1013.85 1013.53 1013.29 1013.05 1012.81 1012.57 1012.25 1011.85 1011.45 1010.69 1010.01 1009.53 1009.01 1008.49 1008.09 1007.81 1007.53 1007.17 1006.93 1006.53 1005.81 1005.41 1005.49 1005.49 1005.49 1005.45 1005.45 1005.33 1005.05 1004.77 1004.41 1004.13 1003.89 1003.89 1004.09 1004.17 1004.13 1004.57
1014.45 1014.45 1014.37 1014.09 1013.73 1013.53 1013.45 1013.29 1012.97 1012.69 1012.13 1011.73 1011.29 1010.61 1009.89 1009.29 1008.77 1008.33 1007.73 1007.29 1006.93 1006.65 1006.37 1006.21 1005.57 1005.01 1004.97 1004.97 1004.89 1004.89 1004.89 1004.81 1004.61 1004.33 1003.85 1003.33 1003.21 1003.25 1003.53 1003.73 1003.73 1004.05
1014.37 1014.37 1014.13 1013.89 1013.65 1013.49 1013.45 1013.33 1012.97 1012.57 1012.13 1011.73 1011.21 1010.73 1010.01 1009.29 1008.73 1008.09 1007.49 1006.85 1006.45 1006.17 1005.89 1005.53 1005.17 1004.57 1004.33 1004.33 1004.25 1004.21 1004.25 1004.21 1004.01 1003.81 1003.25 1002.77 1002.69 1002.73 1002.97 1003.29 1003.45 1003.65
Thickness
5584 5585 5588 5590 5590 5590 5590 5589 5589 5588 5588 5589 5589 5588 5587 5585 5583 5582 5580 5579 5578 5577 5574 5571 5569 5566 5564 5564 5562 5562 5562 5562 5561 5560 5559 5558 5557 5556 5555 5554 5553 5553
5572 5574 5577 5580 5580 5580 5580 5580 5580 5580 5579 5580 5580 5580 5580 5578 5576 5575 5573 5572 5571 5570 5569 5567 5565 5562 5559 5557 5556 5555 5556 5555 5555 5555 5553 5553 5552 5552 5551 5550 5548 5547
5561 5564 5568 5570 5571 5571 5571 5571 5570 5570 5570 5571 5571 5571 5571 5570 5568 5568 5567 5565 5564 5563 5563 5562 5561 5559 5556 5553 5550 5549 5549 5549 5549 5548 5547 5547 5547 5547 5547 5545 5543 5543
5552 5556 5559 5559 5561 5561 5562 5562 5561 5561 5562 5561 5561 5562 5561 5561 5560 5561 5560 5558 5557 5557 5556 5555 5554 5553 5551 5549 5546 5544 5544 5544 5544 5542 5541 5542 5542 5542 5542 5540 5539 5538
5543 5546 5548 5549 5550 5551 5552 5553 5552 5553 5553 5553 5553 5553 5553 5553 5553 5553 5553 5552 5552 5551 5550 5549 5547 5546 5545 5543 5542 5541 5541 5540 5539 5537 5537 5538 5538 5537 5536 5535 5534 5534
5533 5534 5536 5536 5538 5540 5541 5542 5542 5543 5544 5544 5545 5545 5545 5545 5545 5546 5546 5546 5546 5545 5544 5543 5542 5541 5539 5538 5537 5537 5538 5537 5536 5535 5534 5535 5534 5532 5531 5530 5530 5530
5520 5522 5523 5524 5526 5527 5529 5531 5532 5532 5533 5534 5536 5536 5537 5537 5538 5538 5539 5539 5539 5539 5539 5538 5537 5536 5534 5533 5532 5533 5533 5533 5533 5532 5532 5532 5530 5529 5528 5527 5526 5526
5507 5509 5511 5512 5514 5516 5517 5519 5520 5522 5523 5524 5526 5526 5528 5529 5530 5530 5531 5531 5532 5533 5532 5532 5532 5531 5530 5528 5528 5529 5529 5528 5528 5528 5528 5527 5527 5527 5526 5523 5522 5522
5494 5496 5498 5500 5502 5504 5505 5507 5508 5510 5512 5513 5515 5517 5518 5519 5521 5522 5523 5524 5525 5525 5525 5525 5525 5525 5524 5524 5524 5523 5524 5524 5523 5523 5522 5523 5523 5525 5523 5519 5517 5516
5482 5484 5486 5488 5490 5491 5493 5494 5496 5499 5500 5501 5503 5505 5506 5508 5510 5513 5515 5517 5517 5518 5517 5517 5517 5518 5518 5518 5518 5518 5518 5518 5518 5517 5517 5518 5518 5519 5518 5515 5513 5513
5470 5472 5473 5475 5477 5479 5481 5483 5485 5487 5487 5489 5491 5492 5494 5497 5499 5502 5505 5507 5509 5509 5509 5510 5510 5510 5511 5511 5512 5511 5510 5511 5512 5512 5512 5513 5513 5513 5512 5510 5509 5510
5456 5458 5460 5462 5463 5466 5468 5471 5473 5475 5476 5477 5479 5480 5483 5484 5487 5490 5492 5495 5498 5499 5500 5502 5503 5503 5504 5505 5503 5503 5503 5502 5504 5505 5505 5506 5506 5506 5507 5505 5504 5505
5442 5444 5446 5448 5450 5452 5454 5457 5459 5461 5463 5465 5467 5470 5472 5474 5476 5478 5480 5483 5485 5488 5490 5492 5493 5494 5496 5496 5495 5494 5493 5493 5494 5495 5496 5497 5498 5499 5499 5498 5498 5499
5430 5431 5433 5435 5437 5439 5440 5442 5445 5447 5449 5452 5455 5458 5461 5463 5466 5468 5471 5473 5475 5478 5481 5482 5484 5486 5487 5487 5486 5486 5484 5484 5484 5484 5486 5489 5490 5491 5491 5491 5492 5492
5417 5419 5421 5422 5424 5426 5428 5429 5431 5433 5436 5439 5441 5443 5446 5450 5453 5456 5460 5463 5466 5467 5470 5472 5475 5478 5478 5476 5476 5476 5477 5476 5474 5474 5476 5479 5482 5484 5484 5485 5486 5486
5402 5404 5407 5409 5410 5412 5414 5416 5418 5420 5422 5425 5427 5429 5432 5435 5438 5442 5445 5449 5453 5456 5459 5461 5465 5468 5468 5467 5467 5467 5467 5466 5465 5465 5466 5469 5473 5476 5477 5479 5481 5481
5386 5388 5391 5393 5395 5398 5399 5401 5403 5406 5408 5411 5414 5416 5419 5422 5425 5427 5430 5433 5437 5442 5446 5450 5455 5457 5457 5457 5459 5458 5457 5457 5457 5456 5457 5460 5464 5468 5470 5473 5473 5475
5370 5373 5375 5378 5380 5383 5385 5387 5389 5391 5394 5396 5399 5402 5405 5408 5412 5415 5418 5420 5423 5428 5432 5437 5443 5446 5445 5447 5449 5449 5448 5448 5448 5448 5449 5453 5457 5460 5462 5464 5465 5468
5353 5356 5359 5361 5365 5367 5370 5373 5375 5377 5380 5382 5385 5389 5391 5394 5397 5401 5406 5409 5412 5416 5420 5426 5431 5433 5433 5436 5438 5438 5438 5438 5438 5440 5443 5446 5451 5454 5456 5457 5459 5460
5336 5338 5341 5344 5347 5350 5353 5356 5360 5363 5365 5366 5369 5374 5378 5380 5383 5386 5390 5395 5398 5403 5408 5415 5420 5421 5421 5424 5426 5428 5428 5427 5428 5431 5434 5439 5444 5447 5449 5451 5453 5454
5319 5321 5323 5326 5330 5333 5336 5338 5341 5345 5347 5348 5351 5356 5361 5366 5370 5373 5376 5380 5383 5388 5394 5403 5409 5411 5410 5412 5415 5417 5417 5417 5419 5421 5425 5430 5435 5438 5442 5444 5447 5447
5304 5304 5305 5307 5311 5314 5318 5321 5323 5326 5329 5330 5333 5339 5344 5350 5354 5358 5362 5367 5371 5374 5379 5389 5398 5400 5399 5401 5403 5404 5405 5407 5410 5413 5417 5422 5427 5430 5433 5435 5437 5438
5289 5289 5288 5290 5293 5296 5299 5302 5305 5308 5311 5313 5316 5322 5328 5333 5337 5342 5348 5353 5358 5362 5365 5373 5385 5389 5389 5389 5391 5392 5393 5395 5400 5405 5409 5414 5420 5424 5424 5426 5429 5429
5275 5274 5273 5274 5275 5277 5279 5282 5286 5289 5293 5295 5298 5305 5312 5317 5321 5326 5333 5339 5345 5350 5353 5360 5371 5378 5378 5378 5381 5381 5380 5384 5389 5394 5401 5408 5413 5416 5415 5417 5421 5420
5262 5260 5259 5259 5260 5261 5261 5263 5266 5270 5274 5278 5281 5288 5295 5302 5306 5311 5318 5327 5332 5336 5342 5346 5356 5366 5367 5366 5370 5371 5370 5374 5378 5383 5392 5401 5405 5407 5406 5407 5410 5410
5249 5246 5246 5246 5246 5246 5245 5246 5249 5252 5256 5259 5263 5269 5277 5284 5291 5297 5304 5314 5320 5323 5329 5334 5342 5352 5357 5356 5358 5360 5361 5364 5367 5373 5383 5390 5394 5395 5395 5396 5399 5400